QZS-3 (QZSS/PRN 199)

Last updated on Wed Nov 05 2025 00:03:27 GMT+0000 (Coordinated Universal Time)

1 42917U 17048A 25308.61433447 -.00000336 00000+0 00000+0 0 9994 2 42917 0.0533 174.9517 0001908 44.6377 172.7092 1.00267564 30001
UTC large
Height (km)
Speed (km/s)
/
Latitude / Longitude
Inclination (degrees)
Orbital Period (minutes)
Azimuth
Elevation
Range (km)
Doppler Factor

Next 0 passes for location: London (51.5072 / 0.1276)

Sorry there are no passes over London.